Regional Weather Roundup
Issued by NWS Little Rock, AR

Home | Current Version | Previous Version | Graphics & Text | Print | Product List | Glossary On
Versions: 1 2 3 4 5 6 7 8 9 10 11 12 13 14 15 16 17 18 19 20 21 22 23 24 25 26 27 28 29 30 31
000
ASUS44 KLZK 230905
RWRLZK

WEATHER ROUNDUP FOR ARKANSAS
NATIONAL WEATHER SERVICE LITTLE ROCK AR
300 AM CST THU NOV 23 2017

NOTE: "FAIR" INDICATES FEW OR NO CLOUDS BELOW 12,000 FEET WITH NO
SIGNIFICANT WEATHER AND/OR OBSTRUCTIONS TO VISIBILITY.

ARZ001-003-010-029-231000-
NORTHWEST ARKANSAS

CITY           SKY/WX    TMP DP  RH WIND       PRES   REMARKS
FAYETTEVILLE   CLOUDY    27  24  89 CALM      30.19F
FORT SMITH     CLOUDY    33  26  75 CALM      30.21F
HARRISON       PTCLDY    31  25  78 CALM      30.17F
BENTONVILLE    CLEAR     29  24  82 SE3       30.19F
ROGERS         PTCLDY    32  24  72 S5        30.18F WCI  27
SILOAM SPGS    CLOUDY    28  23  81 E3        30.18F
HIGHFILL       PTCLDY    28  23  81 S3        30.17F
$$

ARZ004-005-016-231000-
NORTH CENTRAL ARKANSAS

CITY           SKY/WX    TMP DP  RH WIND       PRES   REMARKS
BATESVILLE     MOCLDY    29  24  82 CALM      30.22F
FLIPPIN        MOCLDY    28  23  81 CALM      30.20F
MTN HOME       PTCLDY    31  19  61 CALM      30.18F
$$

ARZ040-041-231000-
WEST CENTRAL ARKANSAS

CITY           SKY/WX    TMP DP  RH WIND       PRES   REMARKS
MENA           CLOUDY    28  28 100 CALM      30.20S
MOUNT IDA      CLOUDY    27  24  89 CALM      30.17F
$$

ARZ009-017-025-026-028-231000-
NORTHEAST ARKANSAS

CITY           SKY/WX    TMP DP  RH WIND       PRES   REMARKS
JONESBORO      PTCLDY    29  25  85 CALM      30.21F
NEWPORT        MOCLDY    29  26  89 NW7       30.23F WCI  22
WALNUT RIDGE     N/A     28  25  88 NW5       30.22F WCI  23
BLYTHEVILLE    CLOUDY    25  25 100 NW5       30.21F WCI  19
$$

ARZ022-023-033-042-044-231000-
CENTRAL ARKANSAS

CITY           SKY/WX    TMP DP  RH WIND       PRES   REMARKS
LITTLE ROCK    CLOUDY    30  28  92 W3        30.23S
N LITTLE ROCK    N/A     35  24  65 CALM      30.26R
JACKSONVILLE   MOCLDY    29  24  82 CALM      30.22R
SEARCY         PTCLDY    29  28  96 CALM      30.24R
HOT SPRINGS    CLOUDY    30  27  88 CALM      30.22S
RUSSELLVILLE   PTCLDY    28  27  96 CALM      30.21S
CLINTON        FAIR      28  25  86 CALM      30.23F
$$

ARZ036-231000-
EAST ARKANSAS

CITY           SKY/WX    TMP DP  RH WIND       PRES   REMARKS
WEST MEMPHIS   CLOUDY    27  26  96 CALM      30.20S
$$

ARZ050-053-066-070-073-231000-
SOUTHWEST ARKANSAS

CITY           SKY/WX    TMP DP  RH WIND       PRES   REMARKS
ARKADELPHIA    FAIR      22  19  89 CALM      30.24F
CAMDEN         PTCLDY    25  23  93 CALM      30.22F
TEXARKANA      CLOUDY    33  29  85 CALM      30.20F
EL DORADO      CLOUDY    28  27  96 CALM      30.22F
DE QUEEN       PTCLDY    29  28  96 CALM      30.20F
$$

ARZ056-057-069-231000-
SOUTHEAST ARKANSAS

CITY           SKY/WX    TMP DP  RH WIND       PRES   REMARKS
PINE BLUFF     PTCLDY    26  23  88 CALM      30.22S
STUTTGART      PTCLDY    30  28  92 N5        30.22S WCI  25
MONTICELLO     CLOUDY    28  24  85 NW3       30.21F

$$






USA.gov is the U.S. government's official web portal to all federal, state and local government web resources and services.